Weather History for Point Salines, Grenada

Change the Weather History Date:

Friday, June 21, 2013

  Actual Average Record
Temperature  
Mean Temperature 80 °F -  
Max Temperature 85 °F 84 °F 88 °F (2012)
Min Temperature 76 °F 76 °F 75 °F (2005)
Cooling Degree Days 16    
Growing Degree Days 30 (Base 50)    
Moisture  
Dew Point 74 °F    
Average Humidity 77    
Maximum Humidity 89    
Minimum Humidity 60    
Precipitation  
Precipitation 0.00 in - - ()
Sea Level Pressure  
Sea Level Pressure 29.96 in    
Wind  
Wind Speed 12 mph ()    
Max Wind Speed 102 mph    
Max Gust Speed -    
Visibility 7.3 miles    
Events      
Averages and records for this station are not official NWS values.
T = Trace of Precipitation, MM = Missing Value Source: Averaged Metar Reports

Daily Weather History Graph

Daily Weather History Graph

Search for Another Location

Airport:

Trip Planner

Search our weather history database for the weather conditions in past years. The results will help you decide how hot, cold, wet, or windy it might be!

Date:

Astronomy

Jun. 21, 2013 Rise Set
Actual Time 5:44 AM AST 6:33 PM AST
Civil Twilight 5:20 AM AST 6:57 PM AST
Nautical Twilight 4:53 AM AST 7:24 PM AST
Astronomical Twilight 4:25 AM AST 7:52 PM AST
Moon 4:49 PM AST (6/21) 3:41 AM AST (6/21)
Length of Visible Light 13h 36m
Length of Day
12h 49m
Waxing Gibbous, 95% of the Moon is Illuminated
Jun 21
Waxing Gibbous
Jun 23
Full
Jun 30
Last Quarter
Jul 8
New
Jul 15
First Quarter

Hourly Weather History & Observations

Time (AST) Temp. Heat Index Dew Point Humidity Pressure Visibility Wind Dir Wind Speed Gust Speed Precip Events Conditions
12:00 AM 78.8 °F - 75.2 °F 89% 29.98 in 6.2 mi East 13.8 mph - N/A   Scattered Clouds
1:00 AM 78.8 °F - 73.4 °F 83% 29.95 in 6.2 mi East 9.2 mph - N/A   Partly Cloudy
2:00 AM 78 °F - 73 °F 80% 29.94 in 7 mi East 9.2 mph - -   Widespread Dust
2:00 AM 78.8 °F - 73.4 °F 83% 29.95 in 6.2 mi East 9.2 mph - N/A   Partly Cloudy
3:00 AM 78.8 °F - 73.4 °F 83% 29.92 in 6.2 mi East 9.2 mph - N/A   Partly Cloudy
4:00 AM 78.8 °F - 73.4 °F 83% 29.92 in 6.2 mi East 5.8 mph - N/A   Partly Cloudy
5:00 AM 78 °F - 73 °F 80% 29.95 in 7 mi East 9.2 mph - -   Widespread Dust
5:00 AM 78.8 °F - 73.4 °F 83% 29.95 in 6.2 mi East 9.2 mph - N/A   Partly Cloudy
6:00 AM 77.0 °F - 73.4 °F 89% 29.95 in - North - - N/A   Partly Cloudy
7:00 AM 80.6 °F 86.2 °F 75.2 °F 84% 29.95 in 6.2 mi East 11.5 mph - N/A   Partly Cloudy
8:00 AM 83 °F - 75 °F 70% 29.99 in 7 mi East 12.7 mph - -   Widespread Dust
8:00 AM 82.4 °F 89.5 °F 75.2 °F 79% 29.98 in 6.2 mi East 12.7 mph - N/A   Partly Cloudy
9:00 AM 84.2 °F 92.3 °F 75.2 °F 74% 29.98 in 6.2 mi East 11.5 mph - N/A   Scattered Clouds
10:00 AM 84.2 °F 92.3 °F 75.2 °F 74% 29.98 in 6.2 mi ESE 17.3 mph - N/A   Scattered Clouds
11:00 AM 85 °F - 74 °F 63% 29.99 in 11 mi ESE 16.1 mph - -   Widespread Dust
11:00 AM 86.0 °F 95.1 °F 75.2 °F 70% 29.98 in 6.2 mi ESE 16.1 mph - N/A   Scattered Clouds
12:00 PM 84.2 °F 92.3 °F 75.2 °F 74% 29.98 in 6.2 mi ESE 16.1 mph - N/A   Scattered Clouds
1:00 PM 84.2 °F 90.9 °F 73.4 °F 70% 29.98 in 6.2 mi ESE 17.3 mph - N/A   Scattered Clouds
2:00 PM 85 °F - 73 °F 60% 29.95 in 14 mi SE 17.3 mph - -   Widespread Dust
2:00 PM 84.2 °F 90.9 °F 73.4 °F 70% 29.95 in 6.2 mi SE 17.3 mph - N/A   Partly Cloudy
3:00 PM 84.2 °F 90.9 °F 73.4 °F 70% 29.92 in 6.2 mi ESE 15.0 mph - N/A   Partly Cloudy
4:00 PM 84.2 °F 89.6 °F 71.6 °F 66% 29.92 in 6.2 mi ESE 12.7 mph - N/A   Partly Cloudy
5:00 PM - - 74 °F % 29.93 in 14 mi NNE 102.4 mph - -   Widespread Dust
5:00 PM 84.2 °F 92.3 °F 75.2 °F 74% 29.92 in 6.2 mi East 15.0 mph - N/A   Partly Cloudy
6:00 PM 82.4 °F 88.2 °F 73.4 °F 74% 29.92 in 6.2 mi East 12.7 mph - N/A   Partly Cloudy
7:00 PM 80.6 °F 85.4 °F 73.4 °F 79% 29.95 in 6.2 mi East 8.1 mph - N/A   Partly Cloudy
8:00 PM 79 °F - 73 °F 78% 29.97 in 14 mi East 8.1 mph - -   Widespread Dust
8:00 PM 78.8 °F - 73.4 °F 83% 29.95 in 6.2 mi East 8.1 mph - N/A   Partly Cloudy
9:00 PM 78.8 °F - 73.4 °F 83% 29.98 in 6.2 mi East 8.1 mph - N/A   Partly Cloudy
10:00 PM 78.8 °F - 73.4 °F 83% 29.98 in 6.2 mi East 8.1 mph - N/A   Partly Cloudy
11:00 PM 78 °F - 73 °F 81% 30.00 in 11 mi East 8.1 mph - -   Widespread Dust
11:00 PM 78.8 °F - 73.4 °F 83% 30.01 in 6.2 mi East 8.1 mph - N/A   Partly Cloudy